Regional Weather Roundup
Issued by NWS

Home | Current Version | Previous Version | Graphics & Text | Print | Product List | Glossary On
Versions: 1 2 3 4 5 6 7 8 9 10 11 12 13 14 15 16 17 18 19 20 21 22 23 24 25 26 27 28 29 30 31 32 33 34 35 36 37 38 39 40 41 42 43 44 45 46 47 48 49 50
000
ASUS43 KFSD 220310
RWRSD

WEATHER ROUNDUP FOR SOUTH DAKOTA
NATIONAL WEATHER SERVICE SIOUX FALLS SD
1000 PM CDT TUE OCT 21 2014

NOTE: "FAIR" INDICATES FEW OR NO CLOUDS BELOW 12,000 FEET WITH NO
SIGNIFICANT WEATHER AND/OR OBSTRUCTIONS TO VISIBILITY.


SDZ001>005-009-010-012>017-220400-
NORTHWEST AND NORTH CENTRAL SOUTH DAKOTA

CITY           SKY/WX    TMP DP  RH WIND       PRES   REMARKS
BUFFALO          N/A     62  41  46 S9        29.60S
FAITH            N/A     62  48  60 SE14      29.71R
MOBRIDGE       PTCLDY    68  40  35 SE16      29.71S
$$

SDZ012>016-024>037-041>051-057-063-072>074-220400-
SOUTHWEST AND SOUTH CENTRAL SOUTH DAKOTA

CITY           SKY/WX    TMP DP  RH WIND       PRES   REMARKS
RAPID CTY ARPT MOCLDY    62  43  49 SW8       29.76S
PIERRE         PTCLDY    66  40  38 SE16      29.78R
CUSTER         PTCLDY    59  39  47 SW8       29.90R
ELLSWORTH AFB  CLEAR     63  44  49 SW7       29.76R
PHILIP         CLEAR     65  50  58 S12       29.74R
PINE RIDGE     MOCLDY    66  49  54 S10       29.82S
SPEARFISH      FAIR      59  39  47 S14       29.78R
WINNER         FAIR      68  49  50 S21G31    29.83S
$$

SDZ004>011-016>023-039-040-220400-
NORTHEAST SOUTH DAKOTA

CITY           SKY/WX    TMP DP  RH WIND       PRES   REMARKS
ABERDEEN       CLEAR     64  45  49 S21G29    29.85S
WATERTOWN      CLEAR     58  42  55 S16       29.96R
SISSETON         N/A     56  42  59 S14       29.94R
$$

SDZ017-020-022-023-036>040-048>070-220400-
SOUTHEAST SOUTH DAKOTA

CITY           SKY/WX    TMP DP  RH WIND       PRES   REMARKS
SIOUX FALLS    CLEAR     58  42  55 SE14      30.02R
HURON          CLEAR     63  44  50 SE15G25   29.89S
CHAMBERLAIN    CLEAR     63  38  39 SE13      29.86S
MITCHELL       CLEAR     64  44  48 SE20      29.94R
YANKTON        CLEAR     61  41  48 SE15      29.99R
$$

ABBREVIATIONS USED IN REMARKS
   TC - TEMPERATURE IN CELSIUS
  WCI - WIND CHILL INDEX
   HX - HEAT INDEX
  VSB - VISIBILITY




USA.gov is the U.S. government's official web portal to all federal, state and local government web resources and services.